Location: Kershaw
(34.5481°N, 80.5823°W)
Time: 08:48:35
(UTC+00:00)

Altair - Pass Details

Date: 09 October 2022
Orbit: 1501 x 1682 km, 47.2° (Epoch: 08 December)

Event Time Altitude Azimuth Distance (km) Brightness Sun altitude
Rises 16:14:49 0° 301° (WNW) 4,909 9.8 47.0°
Reaches altitude 10° 16:18:11 10° 295° (WNW) 3,932 9.5 47.3°
Maximum altitude 16:27:23 41° 229° (SW) 2,271 9.2 47.8°
Drops below altitude 10° 16:36:35 10° 163° (SSE) 3,915 10.6 48.3°
Sets 16:39:57 0° 157° (SSE) 4,886 10.8 48.4°
